2015-11-17 00:00:59 r, 19.89m,0000000001Hz,0000495552c,0000001.075s, 022.2C,00002191
2015-11-17 00:10:58 r, 19.87m,0000000001Hz,0000481852c,0000001.046s, 022.2C,00002191
2015-11-17 00:20:59 r, 19.93m,0000000001Hz,0000511528c,0000001.110s, 022.2C,00002191
2015-11-17 00:31:00 r, 19.82m,0000000001Hz,0000459584c,0000000.997s, 022.2C,00002191
2015-11-17 00:40:58 r, 19.88m,0000000001Hz,0000486503c,0000001.056s, 022.2C,00002191
2015-11-17 00:50:59 r, 19.81m,0000000001Hz,0000458700c,0000000.995s, 022.2C,00002191
2015-11-17 01:00:58 r, 19.90m,0000000001Hz,0000497355c,0000001.079s, 022.2C,00002191
2015-11-17 01:10:59 r, 19.97m,0000000001Hz,0000531561c,0000001.154s, 022.2C,00002191
2015-11-17 01:20:59 r, 19.89m,0000000001Hz,0000494240c,0000001.073s, 022.2C,00002191
2015-11-17 01:30:58 r, 19.88m,0000000001Hz,0000491352c,0000001.066s, 022.2C,00002191
2015-11-17 01:40:59 r, 19.95m,0000000001Hz,0000520415c,0000001.129s, 021.9C,00002191
2015-11-17 01:50:58 r, 20.05m,0000000001Hz,0000571904c,0000001.241s, 021.9C,00002191
2015-11-17 02:01:00 r, 19.97m,0000000001Hz,0000528434c,0000001.147s, 021.9C,00002191
2015-11-17 02:10:58 r, 19.96m,0000000001Hz,0000528068c,0000001.146s, 021.9C,00002191
2015-11-17 02:20:58 r, 20.02m,0000000001Hz,0000555089c,0000001.205s, 021.9C,00002191
2015-11-17 02:31:00 r, 20.11m,0000000000Hz,0000599806c,0000001.302s, 021.9C,00002191
2015-11-17 02:40:59 r, 20.18m,0000000001Hz,0000637976c,0000001.384s, 021.9C,00002191
2015-11-17 02:50:58 r, 20.27m,0000000001Hz,0000692983c,0000001.504s, 021.9C,00002191
2015-11-17 03:00:59 r, 20.22m,0000000001Hz,0000666430c,0000001.446s, 021.9C,00002191
2015-11-17 03:10:58 r, 20.20m,0000000001Hz,0000647811c,0000001.406s, 021.9C,00002191
2015-11-17 03:20:59 r, 20.25m,0000000001Hz,0000685585c,0000001.488s, 021.9C,00002191
2015-11-17 03:31:00 r, 20.20m,0000000001Hz,0000654712c,0000001.421s, 021.9C,00002191
2015-11-17 03:40:58 r, 20.16m,0000000001Hz,0000627720c,0000001.362s, 021.9C,00002191
2015-11-17 03:50:59 r, 20.16m,0000000001Hz,0000630516c,0000001.368s, 022.2C,00002191
2015-11-17 04:00:59 r, 20.15m,0000000000Hz,0000625482c,0000001.357s, 022.2C,00002191
2015-11-17 04:10:58 r, 20.21m,0000000001Hz,0000657671c,0000001.427s, 022.2C,00002191
2015-11-17 04:20:59 r, 19.69m,0000000002Hz,0000410758c,0000000.891s, 022.2C,00002191
2015-11-17 04:30:59 r, 19.93m,0000000001Hz,0000510837c,0000001.109s, 022.2C,00002191
2015-11-17 04:40:59 r, 19.92m,0000000001Hz,0000506969c,0000001.100s, 022.2C,00002191
2015-11-17 04:50:59 r, 19.90m,0000000001Hz,0000497163c,0000001.079s, 021.9C,00002191
2015-11-17 05:00:59 r, 19.78m,0000000001Hz,0000446325c,0000000.969s, 021.5C,00002191
2015-11-17 05:10:59 r, 19.82m,0000000001Hz,0000461925c,0000001.002s, 021.2C,00002191
2015-11-17 05:20:59 r, 19.83m,0000000001Hz,0000467526c,0000001.015s, 020.9C,00002191
2015-11-17 05:31:00 r, 19.91m,0000000001Hz,0000504851c,0000001.096s, 020.9C,00002191
2015-11-17 05:40:59 r, 19.94m,0000000001Hz,0000512408c,0000001.112s, 020.6C,00002191
2015-11-17 05:50:59 r, 19.94m,0000000001Hz,0000515375c,0000001.118s, 020.3C,00002191
2015-11-17 06:00:59 r, 19.96m,0000000000Hz,0000525277c,0000001.140s, 020.3C,00002191
2015-11-17 06:10:59 r, 19.98m,0000000001Hz,0000534710c,0000001.160s, 020.3C,00002191
2015-11-17 06:20:59 r, 19.74m,0000000001Hz,0000433584c,0000000.941s, 020.3C,00002191
2015-11-17 06:30:59 r, 19.32m,0000000001Hz,0000293814c,0000000.638s, 019.9C,00002191
2015-11-17 06:40:59 r, 18.41m,0000000003Hz,0000127484c,0000000.277s, 019.9C,00002191
2015-11-17 06:50:58 r, 17.05m,0000000013Hz,0000036164c,0000000.078s, 019.9C,00002191
2015-11-17 07:00:58 r, 15.41m,0000000057Hz,0000008024c,0000000.017s, 019.6C,00002191
2015-11-17 07:10:59 r, 13.50m,0000000337Hz,0000000000c,0000000.000s, 019.3C,00002191
2015-11-17 07:20:58 r, 11.51m,0000002109Hz,0000000000c,0000000.000s, 019.3C,00002191
2015-11-17 07:30:59 r, 09.96m,0000008792Hz,0000000000c,0000000.000s, 019.3C,00002191
2015-11-17 07:40:59 r, 09.36m,0000015282Hz,0000000000c,0000000.000s, 019.3C,00002191
2015-11-17 07:50:59 r, 08.70m,0000027989Hz,0000000000c,0000000.000s, 019.3C,00002191
2015-11-17 08:00:58 r, 08.08m,0000049909Hz,0000000000c,0000000.000s, 019.0C,00002191
2015-11-17 08:10:59 r, 07.24m,0000107328Hz,0000000000c,0000000.000s, 018.6C,00002191
2015-11-17 08:20:58 r, 07.28m,0000103478Hz,0000000000c,0000000.000s, 018.6C,00002191
2015-11-17 08:30:59 r, 06.82m,0000157749Hz,0000000000c,0000000.000s, 018.3C,00002191
2015-11-17 08:40:58 r, 06.26m,0000264528Hz,0000000000c,0000000.000s, 018.3C,00002191
2015-11-17 08:50:58 r, 06.44m,0000224238Hz,0000000000c,0000000.000s, 018.3C,00002191
2015-11-17 09:00:59 r, 06.07m,0000315878Hz,0000000000c,0000000.000s, 018.0C,00002191
2015-11-17 09:10:59 r, 05.97m,0000346195Hz,0000000000c,0000000.000s, 018.0C,00002191
2015-11-17 09:20:59 r, 06.09m,0000310533Hz,0000000000c,0000000.000s, 018.0C,00002191
2015-11-17 09:30:59 r, 00.00m,0000410149Hz,0000000000c,0000000.000s, 018.0C,00002191
2015-11-17 09:40:59 r, 00.00m,0000511272Hz,0000000000c,0000000.000s, 017.7C,00002191
2015-11-17 09:50:58 r, 00.00m,0000596623Hz,0000000000c,0000000.000s, 018.0C,00002191
2015-11-17 10:01:01 r, 00.00m,0000596643Hz,0000000000c,0000000.000s, 017.7C,00002191
2015-11-17 10:10:58 r, 00.00m,0000596631Hz,0000000000c,0000000.000s, 018.0C,00002191
2015-11-17 10:20:59 r, 00.00m,0000596630Hz,0000000000c,0000000.000s, 018.0C,00002191
2015-11-17 10:31:00 r, 00.00m,0000596664Hz,0000000000c,0000000.000s, 018.0C,00002191
2015-11-17 10:40:58 r, 00.00m,0000596619Hz,0000000000c,0000000.000s, 018.0C,00002191
2015-11-17 10:50:58 r, 00.00m,0000596747Hz,0000000000c,0000000.000s, 017.7C,00002191
2015-11-17 11:01:00 r, 00.00m,0000596682Hz,0000000000c,0000000.000s, 017.7C,00002191
2015-11-17 11:10:58 r, 00.00m,0000596687Hz,0000000000c,0000000.000s, 017.7C,00002191
2015-11-17 11:20:59 r, 00.00m,0000596635Hz,0000000000c,0000000.000s, 018.0C,00002191
2015-11-17 11:30:59 r, 00.00m,0000596662Hz,0000000000c,0000000.000s, 018.0C,00002191
2015-11-17 11:40:59 r, 00.00m,0000596666Hz,0000000000c,0000000.000s, 018.0C,00002191
2015-11-17 11:50:58 r, 00.00m,0000596689Hz,0000000000c,0000000.000s, 018.0C,00002191
2015-11-17 12:00:58 r, 00.00m,0000596721Hz,0000000000c,0000000.000s, 018.0C,00002191
2015-11-17 12:10:59 r, 00.00m,0000596681Hz,0000000000c,0000000.000s, 018.0C,00002191
2015-11-17 12:20:59 r, 00.00m,0000596667Hz,0000000000c,0000000.000s, 018.0C,00002191
2015-11-17 12:30:58 r, 00.00m,0000596735Hz,0000000000c,0000000.000s, 018.0C,00002191
2015-11-17 12:41:00 r, 00.00m,0000596758Hz,0000000000c,0000000.000s, 018.0C,00002191
2015-11-17 12:50:59 r, 00.00m,0000596765Hz,0000000000c,0000000.000s, 018.0C,00002191
2015-11-17 13:00:59 r, 00.00m,0000596666Hz,0000000000c,0000000.000s, 018.0C,00002191
2015-11-17 13:11:00 r, 00.00m,0000596722Hz,0000000000c,0000000.000s, 018.3C,00002191
2015-11-17 13:20:59 r, 00.00m,0000596635Hz,0000000000c,0000000.000s, 018.3C,00002191
2015-11-17 13:30:58 r, 00.00m,0000596672Hz,0000000000c,0000000.000s, 018.0C,00002191
2015-11-17 13:40:59 r, 00.00m,0000596714Hz,0000000000c,0000000.000s, 018.0C,00002191
2015-11-17 13:50:58 r, 00.00m,0000596802Hz,0000000000c,0000000.000s, 017.7C,00002191
2015-11-17 14:00:59 r, 00.00m,0000596783Hz,0000000000c,0000000.000s, 017.7C,00002191
2015-11-17 14:11:00 r, 00.00m,0000596761Hz,0000000000c,0000000.000s, 017.7C,00002191
2015-11-17 14:20:59 r, 00.00m,0000596710Hz,0000000000c,0000000.000s, 017.7C,00002191
2015-11-17 14:30:59 r, 00.00m,0000539693Hz,0000000000c,0000000.000s, 017.4C,00002191
2015-11-17 14:41:00 r, 00.00m,0000596775Hz,0000000000c,0000000.000s, 017.4C,00002191
2015-11-17 14:50:59 r, 00.00m,0000530736Hz,0000000000c,0000000.000s, 017.4C,00002191
2015-11-17 15:00:59 r, 00.00m,0000596769Hz,0000000000c,0000000.000s, 017.0C,00002191
2015-11-17 15:10:59 r, 00.00m,0000596861Hz,0000000000c,0000000.000s, 017.0C,00002191
2015-11-17 15:20:59 r, 00.00m,0000596932Hz,0000000000c,0000000.000s, 017.0C,00002191
2015-11-17 15:30:59 r, 00.00m,0000596899Hz,0000000000c,0000000.000s, 016.7C,00002191
2015-11-17 15:40:58 r, 00.00m,0000470011Hz,0000000000c,0000000.000s, 017.0C,00002191
2015-11-17 15:50:59 r, 06.05m,0000322490Hz,0000000000c,0000000.000s, 016.7C,00002191
2015-11-17 16:00:59 r, 06.69m,0000178355Hz,0000000000c,0000000.000s, 016.7C,00002191
2015-11-17 16:10:59 r, 06.97m,0000137430Hz,0000000000c,0000000.000s, 016.7C,00002191
2015-11-17 16:20:58 r, 07.11m,0000121503Hz,0000000000c,0000000.000s, 016.7C,00002191
2015-11-17 16:30:58 r, 07.47m,0000086551Hz,0000000000c,0000000.000s, 016.4C,00002191
2015-11-17 16:40:59 r, 08.05m,0000051120Hz,0000000000c,0000000.000s, 016.4C,00002191
2015-11-17 16:50:59 r, 09.30m,0000016138Hz,0000000000c,0000000.000s, 016.4C,00002191
2015-11-17 17:00:59 r, 10.61m,0000004854Hz,0000000000c,0000000.000s, 016.4C,00002191
2015-11-17 17:11:00 r, 12.08m,0000001241Hz,0000000000c,0000000.000s, 016.4C,00002191
2015-11-17 17:20:59 r, 13.97m,0000000218Hz,0000000000c,0000000.000s, 016.4C,00002191
2015-11-17 17:30:59 r, 15.57m,0000000050Hz,0000009283c,0000000.020s, 016.4C,00002191
2015-11-17 17:41:01 r, 16.88m,0000000015Hz,0000030962c,0000000.067s, 016.4C,00002191
2015-11-17 17:50:59 r, 18.14m,0000000004Hz,0000098591c,0000000.214s, 016.4C,00002191
2015-11-17 18:00:59 r, 18.86m,0000000003Hz,0000190985c,0000000.414s, 016.4C,00002191
2015-11-17 18:10:59 r, 19.13m,0000000002Hz,0000244776c,0000000.531s, 016.4C,00002191
2015-11-17 18:20:58 r, 19.42m,0000000001Hz,0000318690c,0000000.692s, 016.4C,00002191
2015-11-17 18:30:59 r, 19.64m,0000000001Hz,0000390788c,0000000.848s, 016.1C,00002191
2015-11-17 18:41:00 r, 19.89m,0000000001Hz,0000492300c,0000001.068s, 015.7C,00002191
2015-11-17 18:50:59 r, 19.60m,0000000001Hz,0000378037c,0000000.820s, 015.1C,00002191
2015-11-17 19:00:58 r, 20.21m,0000000001Hz,0000660735c,0000001.434s, 014.8C,00002191
2015-11-17 19:10:59 r, 20.33m,0000000001Hz,0000736352c,0000001.598s, 014.5C,00002191
2015-11-17 19:20:58 r, 19.83m,0000000001Hz,0000466679c,0000001.013s, 014.1C,00002191
2015-11-17 19:30:59 r, 20.15m,0000000001Hz,0000622899c,0000001.352s, 014.1C,00002191
2015-11-17 19:40:59 r, 19.90m,0000000001Hz,0000495199c,0000001.075s, 014.1C,00002191
2015-11-17 19:50:59 r, 20.36m,0000000001Hz,0000750673c,0000001.629s, 013.8C,00002191
2015-11-17 20:00:58 r, 20.38m,0000000001Hz,0000762949c,0000001.656s, 013.8C,00002191
2015-11-17 20:10:58 r, 20.40m,0000000001Hz,0000779526c,0000001.692s, 013.2C,00002191
2015-11-17 20:20:59 r, 20.42m,0000000000Hz,0000795643c,0000001.727s, 012.8C,00002191
2015-11-17 20:30:58 r, 20.46m,0000000000Hz,0000823371c,0000001.787s, 012.5C,00002191
2015-11-17 20:40:59 r, 20.50m,0000000000Hz,0000852309c,0000001.850s, 012.2C,00002191
2015-11-17 20:50:59 r, 20.56m,0000000001Hz,0000901148c,0000001.956s, 012.2C,00002191
2015-11-17 21:00:59 r, 20.19m,0000000001Hz,0000649799c,0000001.410s, 012.2C,00002191
2015-11-17 21:10:58 r, 20.35m,0000000000Hz,0000745150c,0000001.617s, 012.2C,00002191
2015-11-17 21:20:58 r, 20.44m,0000000001Hz,0000810694c,0000001.759s, 012.5C,00002191
2015-11-17 21:30:58 r, 20.52m,0000000000Hz,0000875156c,0000001.899s, 012.5C,00002191
2015-11-17 21:40:58 r, 20.09m,0000000001Hz,0000590521c,0000001.282s, 012.5C,00002191
2015-11-17 21:50:59 r, 20.03m,0000000001Hz,0000564390c,0000001.225s, 012.8C,00002191
2015-11-17 22:00:59 r, 20.38m,0000000001Hz,0000766713c,0000001.664s, 013.2C,00002191
2015-11-17 22:10:59 r, 20.28m,0000000000Hz,0000700856c,0000001.521s, 013.5C,00002191
2015-11-17 22:20:59 r, 20.80m,0000000000Hz,0001129955c,0000002.452s, 013.8C,00002191
2015-11-17 22:30:59 r, 20.84m,0000000000Hz,0001177597c,0000002.556s, 013.5C,00002191
2015-11-17 22:40:58 r, 20.83m,0000000000Hz,0001166269c,0000002.531s, 013.2C,00002191
2015-11-17 22:50:58 r, 20.85m,0000000000Hz,0001186482c,0000002.575s, 012.5C,00002191
2015-11-17 23:00:59 r, 20.85m,0000000001Hz,0001181757c,0000002.565s, 012.2C,00002191
2015-11-17 23:10:59 r, 20.88m,0000000000Hz,0001210120c,0000002.626s, 011.9C,00002191
2015-11-17 23:20:59 r, 20.89m,0000000001Hz,0001220933c,0000002.650s, 011.6C,00002191
2015-11-17 23:30:59 r, 20.90m,0000000001Hz,0001230798c,0000002.671s, 011.6C,00002191
2015-11-17 23:40:58 r, 20.92m,0000000001Hz,0001248599c,0000002.710s, 011.6C,00002191
2015-11-17 23:50:58 r, 20.94m,0000000001Hz,0001281975c,0000002.782s, 011.6C,00002191
